Location: Unspecified
(41.5000°N, 0.0000°E)
Time: 06:16:33
(UTC+00:00)

Vanguard 3 - Pass Details

Date: 24 June 2019
Orbit: 508 x 3262 km, 33.3° (Epoch: 13 October)

Event Time Altitude Azimuth Distance (km) Brightness Sun altitude
Rises 11:43:05 0° 248° (WSW) 6,469 11.8 71.5°
Reaches altitude 10° 11:48:08 10° 244° (WSW) 5,059 11.4 71.7°
Maximum altitude 12:00:40 49° 176° (S) 1,962 10.7 71.9°
Drops below altitude 10° 12:07:49 10° 103° (ESE) 2,956 10.2 71.9°
Sets 12:10:01 0° 97° (E) 3,651 10.5 71.8°
